Time,TemperatureF,DewpointF,PressureIn,WindDirection,WindDirectionDegrees,WindSpeedMPH,WindSpeedGustMPH,Humidity,HourlyPrecipIn,Conditions,Clouds,dailyrainin,SoftwareType,DateUTC
2013-10-26 00:01:00,38.5,29.9,30.11,ENE,65,1.0,2.0,71,0.00,,CLR,0.00,VWS V14.00,2013-10-26 04:01:00,
2013-10-26 00:02:00,38.5,29.9,30.11,ENE,65,0.0,1.0,71,0.00,,CLR,0.00,VWS V14.00,2013-10-26 04:02:00,
2013-10-26 00:07:00,38.5,29.9,30.11,ENE,65,2.0,2.0,71,0.00,,CLR,0.00,VWS V14.00,2013-10-26 04:07:00,
2013-10-26 00:12:00,38.5,29.9,30.11,SE,136,0.0,2.0,71,0.00,,CLR,0.00,VWS V14.00,2013-10-26 04:12:00,
2013-10-26 00:17:00,38.6,30.4,30.11,SE,136,0.0,0.0,72,0.00,,CLR,0.00,VWS V14.00,2013-10-26 04:17:00,
2013-10-26 00:22:00,38.8,30.6,30.11,SE,136,0.0,1.0,72,0.00,,CLR,0.00,VWS V14.00,2013-10-26 04:22:00,
2013-10-26 00:29:00,38.9,30.3,30.11,SE,141,0.0,0.0,71,0.00,,CLR,0.00,VWS V14.00,2013-10-26 04:29:00,
2013-10-26 00:34:00,39.1,30.9,30.11,SE,141,0.0,0.0,72,0.00,,FEW060,0.00,VWS V14.00,2013-10-26 04:34:00,
2013-10-26 00:39:00,39.2,31.0,30.11,SE,141,0.0,0.0,72,0.00,,FEW060,0.00,VWS V14.00,2013-10-26 04:39:00,
2013-10-26 00:44:00,39.2,31.0,30.11,SE,141,1.0,1.0,72,0.00,,FEW060,0.00,VWS V14.00,2013-10-26 04:44:00,
2013-10-26 00:49:00,39.3,31.0,30.12,SE,141,0.0,0.0,72,0.00,,FEW060,0.00,VWS V14.00,2013-10-26 04:49:00,
2013-10-26 00:54:00,39.3,31.0,30.12,SE,141,1.0,1.0,72,0.00,,FEW060,0.00,VWS V14.00,2013-10-26 04:54:00,
2013-10-26 00:59:00,39.5,31.6,30.12,NNE,24,0.0,0.0,73,0.00,,FEW060,0.00,VWS V14.00,2013-10-26 04:59:00,
2013-10-26 01:04:00,39.5,31.2,30.12,NNE,24,0.0,1.0,72,0.00,,FEW060,0.00,VWS V14.00,2013-10-26 05:04:00,
2013-10-26 01:09:00,39.3,31.4,30.12,NNE,24,0.0,2.0,73,0.00,,FEW060,0.00,VWS V14.00,2013-10-26 05:09:00,
2013-10-26 01:14:00,39.3,31.4,30.12,NNE,24,0.0,0.0,73,0.00,,FEW060,0.00,VWS V14.00,2013-10-26 05:14:00,
2013-10-26 01:19:00,39.2,31.3,30.12,NNE,24,0.0,0.0,73,0.00,,FEW060,0.00,VWS V14.00,2013-10-26 05:19:00,
2013-10-26 01:24:00,38.9,31.0,30.12,NNE,24,1.0,1.0,73,0.00,,FEW060,0.00,VWS V14.00,2013-10-26 05:24:00,
2013-10-26 01:29:00,38.8,31.2,30.12,NNE,24,0.0,1.0,74,0.00,,FEW060,0.00,VWS V14.00,2013-10-26 05:29:00,
2013-10-26 01:34:00,38.5,31.0,30.11,NNE,24,0.0,1.0,74,0.00,,CLR,0.00,VWS V14.00,2013-10-26 05:34:00,
2013-10-26 01:39:00,38.2,30.7,30.11,NNE,24,0.0,1.0,74,0.00,,CLR,0.00,VWS V14.00,2013-10-26 05:39:00,
2013-10-26 01:44:00,37.9,30.4,30.11,NNE,24,2.0,2.0,74,0.00,,CLR,0.00,VWS V14.00,2013-10-26 05:44:00,
2013-10-26 01:49:00,37.6,30.4,30.11,NNE,24,0.0,0.0,75,0.00,,CLR,0.00,VWS V14.00,2013-10-26 05:49:00,
2013-10-26 01:54:00,37.5,30.3,30.11,NNE,24,0.0,1.0,75,0.00,,CLR,0.00,VWS V14.00,2013-10-26 05:54:00,
2013-10-26 01:59:00,37.2,30.4,30.11,NNE,24,2.0,2.0,76,0.00,,CLR,0.00,VWS V14.00,2013-10-26 05:59:00,
2013-10-26 02:04:00,37.0,30.5,30.12,NNE,24,0.0,0.0,77,0.00,,CLR,0.00,VWS V14.00,2013-10-26 06:04:00,
2013-10-26 02:09:00,36.9,30.4,30.12,ENE,59,0.0,1.0,77,0.00,,CLR,0.00,VWS V14.00,2013-10-26 06:09:00,
2013-10-26 02:14:00,36.8,30.6,30.12,ENE,59,2.0,3.0,78,0.00,,CLR,0.00,VWS V14.00,2013-10-26 06:14:00,
2013-10-26 02:19:00,36.8,30.6,30.11,ENE,59,0.0,3.0,78,0.00,,CLR,0.00,VWS V14.00,2013-10-26 06:19:00,
2013-10-26 02:24:00,36.8,30.9,30.11,ENE,59,1.0,1.0,79,0.00,,CLR,0.00,VWS V14.00,2013-10-26 06:24:00,
2013-10-26 02:29:00,36.8,30.9,30.11,ENE,74,3.0,4.0,79,0.00,,CLR,0.00,VWS V14.00,2013-10-26 06:29:00,
2013-10-26 02:34:00,36.6,30.7,30.10,East,80,0.0,3.0,79,0.00,,CLR,0.00,VWS V14.00,2013-10-26 06:34:00,
2013-10-26 02:39:00,36.3,30.4,30.10,NNE,17,2.0,3.0,79,0.00,,CLR,0.00,VWS V14.00,2013-10-26 06:39:00,
2013-10-26 02:44:00,36.2,30.6,30.10,ENE,62,0.0,0.0,80,0.00,,CLR,0.00,VWS V14.00,2013-10-26 06:44:00,
2013-10-26 02:49:00,36.2,30.6,30.11,ENE,62,0.0,0.0,80,0.00,,CLR,0.00,VWS V14.00,2013-10-26 06:49:00,
2013-10-26 02:54:00,36.2,30.9,30.11,ENE,62,0.0,0.0,81,0.00,,CLR,0.00,VWS V14.00,2013-10-26 06:54:00,
2013-10-26 02:59:00,36.3,31.0,30.11,East,89,0.0,3.0,81,0.00,,CLR,0.00,VWS V14.00,2013-10-26 06:59:00,
2013-10-26 03:04:00,36.5,31.2,30.10,East,89,0.0,1.0,81,0.00,,CLR,0.00,VWS V14.00,2013-10-26 07:04:00,
2013-10-26 03:09:00,36.5,31.2,30.10,East,89,0.0,2.0,81,0.00,,CLR,0.00,VWS V14.00,2013-10-26 07:09:00,
2013-10-26 03:14:00,36.5,31.2,30.10,East,89,0.0,0.0,81,0.00,,CLR,0.00,VWS V14.00,2013-10-26 07:14:00,
2013-10-26 03:19:00,36.5,31.2,30.10,East,89,0.0,0.0,81,0.00,,CLR,0.00,VWS V14.00,2013-10-26 07:19:00,
2013-10-26 03:24:00,36.5,31.2,30.10,East,89,0.0,1.0,81,0.00,,CLR,0.00,VWS V14.00,2013-10-26 07:24:00,
2013-10-26 03:29:00,36.3,31.0,30.10,East,89,0.0,1.0,81,0.00,,CLR,0.00,VWS V14.00,2013-10-26 07:29:00,
2013-10-26 03:34:00,36.3,31.0,30.10,East,89,0.0,2.0,81,0.00,,CLR,0.00,VWS V14.00,2013-10-26 07:34:00,
2013-10-26 03:39:00,36.2,30.9,30.10,East,89,0.0,1.0,81,0.00,,CLR,0.00,VWS V14.00,2013-10-26 07:39:00,
2013-10-26 03:44:00,36.2,31.2,30.10,East,89,0.0,2.0,82,0.00,,CLR,0.00,VWS V14.00,2013-10-26 07:44:00,
2013-10-26 03:49:00,36.0,31.0,30.09,East,89,0.0,0.0,82,0.00,,CLR,0.00,VWS V14.00,2013-10-26 07:49:00,
2013-10-26 03:54:00,36.0,31.0,30.09,East,89,1.0,2.0,82,0.00,,CLR,0.00,VWS V14.00,2013-10-26 07:54:00,
2013-10-26 03:59:00,35.9,31.0,30.09,East,89,0.0,0.0,82,0.00,,CLR,0.00,VWS V14.00,2013-10-26 07:59:00,
2013-10-26 04:04:00,35.9,31.0,30.09,East,89,0.0,0.0,82,0.00,,CLR,0.00,VWS V14.00,2013-10-26 08:04:00,
2013-10-26 04:09:00,35.9,31.0,30.09,East,89,0.0,1.0,82,0.00,,CLR,0.00,VWS V14.00,2013-10-26 08:09:00,
2013-10-26 04:14:00,35.9,31.2,30.09,East,89,0.0,0.0,83,0.00,,CLR,0.00,VWS V14.00,2013-10-26 08:14:00,
2013-10-26 04:19:00,36.0,31.4,30.09,East,89,0.0,1.0,83,0.00,,CLR,0.00,VWS V14.00,2013-10-26 08:19:00,
2013-10-26 04:24:00,36.0,31.4,30.09,East,89,0.0,1.0,83,0.00,,CLR,0.00,VWS V14.00,2013-10-26 08:24:00,
2013-10-26 04:29:00,35.9,31.2,30.09,East,89,1.0,1.0,83,0.00,,CLR,0.00,VWS V14.00,2013-10-26 08:29:00,
2013-10-26 04:34:00,35.8,31.1,30.10,East,89,0.0,0.0,83,0.00,,CLR,0.00,VWS V14.00,2013-10-26 08:34:00,
2013-10-26 04:39:00,35.8,31.1,30.10,East,89,0.0,1.0,83,0.00,,CLR,0.00,VWS V14.00,2013-10-26 08:39:00,
2013-10-26 04:44:00,35.6,31.0,30.10,East,89,0.0,0.0,83,0.00,,CLR,0.00,VWS V14.00,2013-10-26 08:44:00,
2013-10-26 04:49:00,35.5,31.1,30.10,East,89,1.0,2.0,84,0.00,,CLR,0.00,VWS V14.00,2013-10-26 08:49:00,
2013-10-26 04:54:00,35.5,31.1,30.10,East,89,0.0,2.0,84,0.00,,CLR,0.00,VWS V14.00,2013-10-26 08:54:00,
2013-10-26 04:59:00,35.5,31.1,30.10,East,89,0.0,1.0,84,0.00,,CLR,0.00,VWS V14.00,2013-10-26 08:59:00,
2013-10-26 05:04:00,35.5,31.1,30.09,East,89,0.0,1.0,84,0.00,,CLR,0.00,VWS V14.00,2013-10-26 09:04:00,
2013-10-26 05:09:00,35.5,31.5,30.09,ESE,105,0.0,1.0,85,0.00,,CLR,0.00,VWS V14.00,2013-10-26 09:09:00,
2013-10-26 05:14:00,35.6,31.5,30.09,ESE,105,0.0,0.0,85,0.00,,CLR,0.00,VWS V14.00,2013-10-26 09:14:00,
2013-10-26 05:20:00,35.6,31.5,30.10,ESE,105,0.0,0.0,85,0.00,,CLR,0.00,VWS V14.00,2013-10-26 09:20:00,
2013-10-26 05:25:00,35.5,31.5,30.10,ESE,105,0.0,1.0,85,0.00,,CLR,0.00,VWS V14.00,2013-10-26 09:25:00,
2013-10-26 05:30:00,35.5,31.5,30.10,ESE,105,1.0,1.0,85,0.00,,CLR,0.00,VWS V14.00,2013-10-26 09:30:00,
2013-10-26 05:35:00,35.5,31.5,30.10,ESE,105,0.0,1.0,85,0.00,,CLR,0.00,VWS V14.00,2013-10-26 09:35:00,
2013-10-26 05:40:00,35.5,31.5,30.10,ESE,105,0.0,2.0,85,0.00,,CLR,0.00,VWS V14.00,2013-10-26 09:40:00,
2013-10-26 05:45:00,35.5,31.5,30.10,ESE,105,0.0,1.0,85,0.00,,CLR,0.00,VWS V14.00,2013-10-26 09:45:00,
2013-10-26 05:50:00,35.6,31.5,30.10,ESE,105,1.0,1.0,85,0.00,,CLR,0.00,VWS V14.00,2013-10-26 09:50:00,
2013-10-26 05:55:00,35.6,31.5,30.10,ESE,105,0.0,0.0,85,0.00,,CLR,0.00,VWS V14.00,2013-10-26 09:55:00,
2013-10-26 06:00:00,35.6,31.5,30.10,ESE,105,0.0,0.0,85,0.00,,CLR,0.00,VWS V14.00,2013-10-26 10:00:00,
2013-10-26 06:05:00,35.5,31.5,30.09,ESE,105,0.0,0.0,85,0.00,,CLR,0.00,VWS V14.00,2013-10-26 10:05:00,
2013-10-26 06:10:00,35.3,31.2,30.09,ESE,105,0.0,0.0,85,0.00,,CLR,0.00,VWS V14.00,2013-10-26 10:10:00,
2013-10-26 06:15:00,35.3,31.2,30.09,ESE,105,0.0,1.0,85,0.00,,CLR,0.00,VWS V14.00,2013-10-26 10:15:00,
2013-10-26 06:20:00,35.0,31.0,30.09,ESE,105,0.0,0.0,85,0.00,,CLR,0.00,VWS V14.00,2013-10-26 10:20:00,
2013-10-26 06:25:00,34.9,30.9,30.09,ESE,105,1.0,2.0,85,0.00,,CLR,0.00,VWS V14.00,2013-10-26 10:25:00,
2013-10-26 06:30:00,34.7,30.7,30.09,ESE,105,0.0,0.0,85,0.00,,CLR,0.00,VWS V14.00,2013-10-26 10:30:00,
2013-10-26 06:35:00,34.6,30.6,30.09,ESE,105,1.0,2.0,85,0.00,,CLR,0.00,VWS V14.00,2013-10-26 10:35:00,
2013-10-26 06:40:00,34.6,30.6,30.09,ESE,105,0.0,0.0,85,0.00,,CLR,0.00,VWS V14.00,2013-10-26 10:40:00,
2013-10-26 06:45:00,34.4,30.4,30.09,ESE,105,0.0,0.0,85,0.00,,CLR,0.00,VWS V14.00,2013-10-26 10:45:00,
2013-10-26 06:50:00,34.4,30.4,30.09,ESE,105,0.0,0.0,85,0.00,,CLR,0.00,VWS V14.00,2013-10-26 10:50:00,
2013-10-26 06:55:00,34.3,30.3,30.09,ESE,105,0.0,0.0,85,0.00,,CLR,0.00,VWS V14.00,2013-10-26 10:55:00,
2013-10-26 07:00:00,34.3,30.3,30.09,ESE,105,0.0,0.0,85,0.00,,CLR,0.00,VWS V14.00,2013-10-26 11:00:00,
2013-10-26 07:05:00,34.1,30.1,30.09,ESE,105,0.0,1.0,85,0.00,,CLR,0.00,VWS V14.00,2013-10-26 11:05:00,
2013-10-26 07:10:00,34.1,30.1,30.09,ESE,105,0.0,0.0,85,0.00,,CLR,0.00,VWS V14.00,2013-10-26 11:10:00,
2013-10-26 07:16:00,34.0,30.0,30.09,ESE,105,0.0,0.0,85,0.00,,CLR,0.00,VWS V14.00,2013-10-26 11:16:00,
2013-10-26 07:21:00,33.8,30.1,30.09,ESE,105,0.0,1.0,86,0.00,,CLR,0.00,VWS V14.00,2013-10-26 11:21:00,
2013-10-26 07:26:00,33.8,30.1,30.09,ESE,105,0.0,0.0,86,0.00,,CLR,0.00,VWS V14.00,2013-10-26 11:26:00,
2013-10-26 07:31:00,33.8,30.1,30.09,ESE,105,0.0,0.0,86,0.00,,CLR,0.00,VWS V14.00,2013-10-26 11:31:00,
2013-10-26 07:36:00,33.8,30.1,30.09,ESE,105,0.0,1.0,86,0.00,,CLR,0.00,VWS V14.00,2013-10-26 11:36:00,
2013-10-26 07:41:00,33.8,30.1,30.09,ESE,105,0.0,0.0,86,0.00,,CLR,0.00,VWS V14.00,2013-10-26 11:41:00,
2013-10-26 07:46:00,33.8,30.4,30.09,ESE,105,0.0,2.0,87,0.00,,CLR,0.00,VWS V14.00,2013-10-26 11:46:00,
2013-10-26 07:51:00,34.0,30.5,30.09,ESE,105,0.0,0.0,87,0.00,,CLR,0.00,VWS V14.00,2013-10-26 11:51:00,
2013-10-26 07:56:00,33.8,30.1,30.09,ESE,105,0.0,0.0,86,0.00,,CLR,0.00,VWS V14.00,2013-10-26 11:56:00,
2013-10-26 08:01:00,33.7,30.0,30.10,ESE,105,0.0,0.0,86,0.00,,CLR,0.00,VWS V14.00,2013-10-26 12:01:00,
2013-10-26 08:06:00,33.7,30.0,30.10,ESE,105,0.0,0.0,86,0.00,,CLR,0.00,VWS V14.00,2013-10-26 12:06:00,
2013-10-26 08:11:00,33.5,30.0,30.10,ESE,105,1.0,1.0,87,0.00,,CLR,0.00,VWS V14.00,2013-10-26 12:11:00,
2013-10-26 08:16:00,33.5,30.0,30.10,East,97,0.0,2.0,87,0.00,,CLR,0.00,VWS V14.00,2013-10-26 12:16:00,
2013-10-26 08:21:00,33.5,30.0,30.10,East,97,0.0,1.0,87,0.00,,CLR,0.00,VWS V14.00,2013-10-26 12:21:00,
2013-10-26 08:26:00,33.5,30.0,30.10,East,97,0.0,1.0,87,0.00,,CLR,0.00,VWS V14.00,2013-10-26 12:26:00,
2013-10-26 08:31:00,33.7,30.2,30.10,East,97,0.0,2.0,87,0.00,,CLR,0.00,VWS V14.00,2013-10-26 12:31:00,
2013-10-26 08:36:00,33.7,30.2,30.10,East,97,0.0,0.0,87,0.00,,CLR,0.00,VWS V14.00,2013-10-26 12:36:00,
2013-10-26 08:41:00,33.8,30.4,30.10,East,97,2.0,2.0,87,0.00,,CLR,0.00,VWS V14.00,2013-10-26 12:41:00,
2013-10-26 08:46:00,34.0,30.8,30.10,ESE,123,0.0,1.0,88,0.00,,CLR,0.00,VWS V14.00,2013-10-26 12:46:00,
2013-10-26 08:51:00,34.1,30.9,30.10,ESE,123,0.0,1.0,88,0.00,,CLR,0.00,VWS V14.00,2013-10-26 12:51:00,
2013-10-26 08:56:00,34.3,31.1,30.10,ESE,123,0.0,1.0,88,0.00,,CLR,0.00,VWS V14.00,2013-10-26 12:56:00,
2013-10-26 09:01:00,34.6,31.4,30.09,ESE,108,0.0,3.0,88,0.00,,CLR,0.00,VWS V14.00,2013-10-26 13:01:00,
2013-10-26 09:06:00,34.9,31.7,30.09,SSW,205,0.0,2.0,88,0.00,,CLR,0.00,VWS V14.00,2013-10-26 13:06:00,
2013-10-26 09:11:00,35.3,32.1,30.09,WSW,258,0.0,0.0,88,0.00,,CLR,0.00,VWS V14.00,2013-10-26 13:11:00,
2013-10-26 09:16:00,35.6,32.4,30.09,WSW,254,0.0,1.0,88,0.00,,CLR,0.00,VWS V14.00,2013-10-26 13:16:00,
2013-10-26 09:21:00,36.0,32.8,30.09,WSW,254,0.0,2.0,88,0.00,,CLR,0.00,VWS V14.00,2013-10-26 13:21:00,
2013-10-26 09:26:00,36.6,33.1,30.09,West,261,0.0,0.0,87,0.00,,CLR,0.00,VWS V14.00,2013-10-26 13:26:00,
2013-10-26 09:31:00,37.2,33.7,30.09,West,261,0.0,1.0,87,0.00,,CLR,0.00,VWS V14.00,2013-10-26 13:31:00,
2013-10-26 09:36:00,37.5,33.7,30.09,SSW,213,0.0,2.0,86,0.00,,CLR,0.00,VWS V14.00,2013-10-26 13:36:00,
2013-10-26 09:42:00,37.8,33.7,30.09,SSE,161,0.0,1.0,85,0.00,,CLR,0.00,VWS V14.00,2013-10-26 13:42:00,
2013-10-26 09:47:00,38.2,34.1,30.08,SSE,161,1.0,1.0,85,0.00,,CLR,0.00,VWS V14.00,2013-10-26 13:47:00,
2013-10-26 09:52:00,39.2,33.9,30.08,SSE,155,0.0,0.0,81,0.00,,CLR,0.00,VWS V14.00,2013-10-26 13:52:00,
2013-10-26 09:57:00,39.9,33.9,30.08,SE,128,0.0,1.0,79,0.00,,CLR,0.00,VWS V14.00,2013-10-26 13:57:00,
2013-10-26 10:02:00,40.6,34.0,30.07,SSE,161,0.0,1.0,77,0.00,,CLR,0.00,VWS V14.00,2013-10-26 14:02:00,
2013-10-26 10:07:00,41.5,34.5,30.07,SSE,160,0.0,1.0,76,0.00,,CLR,0.00,VWS V14.00,2013-10-26 14:07:00,
2013-10-26 10:12:00,41.8,34.1,30.07,SSE,160,1.0,3.0,74,0.00,,CLR,0.00,VWS V14.00,2013-10-26 14:12:00,
2013-10-26 10:17:00,42.5,34.5,30.07,WSW,240,0.0,2.0,73,0.00,,CLR,0.00,VWS V14.00,2013-10-26 14:17:00,
2013-10-26 10:22:00,42.9,34.2,30.07,WSW,247,0.0,1.0,71,0.00,,CLR,0.00,VWS V14.00,2013-10-26 14:22:00,
2013-10-26 10:27:00,43.8,34.7,30.07,WSW,247,0.0,1.0,70,0.00,,CLR,0.00,VWS V14.00,2013-10-26 14:27:00,
2013-10-26 10:32:00,44.1,33.1,30.06,WSW,248,0.0,1.0,65,0.00,,CLR,0.00,VWS V14.00,2013-10-26 14:32:00,
2013-10-26 10:37:00,44.5,33.5,30.06,SW,221,2.0,4.0,65,0.00,,CLR,0.00,VWS V14.00,2013-10-26 14:37:00,
2013-10-26 10:42:00,44.8,33.4,30.06,WSW,246,1.0,2.0,64,0.00,,CLR,0.00,VWS V14.00,2013-10-26 14:42:00,
2013-10-26 10:47:00,44.9,32.3,30.05,WSW,245,0.0,2.0,61,0.00,,CLR,0.00,VWS V14.00,2013-10-26 14:47:00,
2013-10-26 10:52:00,45.8,33.1,30.05,SW,234,3.0,4.0,61,0.00,,CLR,0.00,VWS V14.00,2013-10-26 14:52:00,
2013-10-26 10:57:00,46.0,32.9,30.05,SW,229,2.0,3.0,60,0.00,,CLR,0.00,VWS V14.00,2013-10-26 14:57:00,
2013-10-26 11:02:00,46.1,32.2,30.04,WSW,248,4.0,5.0,58,0.00,,CLR,0.00,VWS V14.00,2013-10-26 15:02:00,
2013-10-26 11:07:00,46.4,32.0,30.04,WSW,252,5.0,9.0,57,0.00,,CLR,0.00,VWS V14.00,2013-10-26 15:07:00,
2013-10-26 11:12:00,46.2,31.8,30.04,SW,229,2.0,7.0,57,0.00,,CLR,0.00,VWS V14.00,2013-10-26 15:12:00,
2013-10-26 11:17:00,46.8,32.0,30.04,SSW,212,1.0,2.0,56,0.00,,CLR,0.00,VWS V14.00,2013-10-26 15:17:00,
2013-10-26 11:22:00,47.9,32.5,30.04,West,259,1.0,3.0,55,0.00,,CLR,0.00,VWS V14.00,2013-10-26 15:22:00,
2013-10-26 11:27:00,47.6,31.8,30.04,SE,141,3.0,4.0,54,0.00,,CLR,0.00,VWS V14.00,2013-10-26 15:27:00,
2013-10-26 11:33:00,47.7,31.4,30.03,West,263,4.0,7.0,53,0.00,,CLR,0.00,VWS V14.00,2013-10-26 15:33:00,
2013-10-26 11:37:00,48.0,31.2,30.03,SW,227,4.0,11.0,52,0.00,,CLR,0.00,VWS V14.00,2013-10-26 15:37:00,
2013-10-26 11:43:00,47.9,29.2,30.03,SSW,213,3.0,10.0,48,0.00,,CLR,0.00,VWS V14.00,2013-10-26 15:43:00,
2013-10-26 11:48:00,48.3,28.0,30.02,SW,222,3.0,6.0,45,0.00,,CLR,0.00,VWS V14.00,2013-10-26 15:48:00,
2013-10-26 11:53:00,48.6,29.3,30.02,WSW,244,3.0,5.0,47,0.00,,CLR,0.00,VWS V14.00,2013-10-26 15:53:00,
2013-10-26 11:58:00,49.4,28.4,30.02,South,191,3.0,6.0,44,0.00,,CLR,0.00,VWS V14.00,2013-10-26 15:58:00,
2013-10-26 12:03:00,49.5,28.5,30.02,SW,231,4.0,6.0,44,0.00,,CLR,0.00,VWS V14.00,2013-10-26 16:03:00,
2013-10-26 12:08:00,49.2,28.2,30.02,SW,231,4.0,12.0,44,0.00,,CLR,0.00,VWS V14.00,2013-10-26 16:08:00,
2013-10-26 12:13:00,49.9,28.3,30.02,SW,227,5.0,6.0,43,0.00,,CLR,0.00,VWS V14.00,2013-10-26 16:13:00,
2013-10-26 12:18:00,49.9,27.1,30.00,SW,233,3.0,4.0,41,0.00,,CLR,0.00,VWS V14.00,2013-10-26 16:18:00,
2013-10-26 12:23:00,49.8,26.5,30.00,SSW,207,5.0,7.0,40,0.00,,CLR,0.00,VWS V14.00,2013-10-26 16:23:00,
2013-10-26 12:28:00,50.1,28.5,30.00,WSW,255,3.0,5.0,43,0.00,,CLR,0.00,VWS V14.00,2013-10-26 16:28:00,
2013-10-26 12:33:00,50.2,26.8,29.99,WSW,248,4.0,9.0,40,0.00,,CLR,0.00,VWS V14.00,2013-10-26 16:33:00,
2013-10-26 12:38:00,50.2,26.2,29.99,SW,227,2.0,5.0,39,0.00,,CLR,0.00,VWS V14.00,2013-10-26 16:38:00,
2013-10-26 12:43:00,49.4,27.3,29.99,SSE,160,4.0,7.0,42,0.00,,CLR,0.00,VWS V14.00,2013-10-26 16:43:00,
2013-10-26 12:48:00,50.2,29.1,29.99,SW,232,3.0,5.0,44,0.00,,CLR,0.00,VWS V14.00,2013-10-26 16:48:00,
2013-10-26 12:53:00,50.5,28.3,29.99,SE,126,2.0,3.0,42,0.00,,CLR,0.00,VWS V14.00,2013-10-26 16:53:00,
2013-10-26 12:58:00,51.4,28.5,29.99,SSW,213,12.0,16.0,41,0.00,,CLR,0.00,VWS V14.00,2013-10-26 16:58:00,
2013-10-26 13:03:00,50.8,29.1,29.98,WSW,251,2.0,4.0,43,0.00,,CLR,0.00,VWS V14.00,2013-10-26 17:03:00,
2013-10-26 13:08:00,51.6,28.7,29.98,SW,234,4.0,4.0,41,0.00,,CLR,0.00,VWS V14.00,2013-10-26 17:08:00,
2013-10-26 13:13:00,50.7,28.5,29.98,NW,323,3.0,5.0,42,0.00,,CLR,0.00,VWS V14.00,2013-10-26 17:13:00,
2013-10-26 13:18:00,50.5,27.1,29.97,SW,234,3.0,11.0,40,0.00,,CLR,0.00,VWS V14.00,2013-10-26 17:18:00,
2013-10-26 13:23:00,51.4,28.5,29.97,SW,223,6.0,6.0,41,0.00,,CLR,0.00,VWS V14.00,2013-10-26 17:23:00,
2013-10-26 13:28:00,51.1,27.6,29.97,East,98,12.0,12.0,40,0.00,,CLR,0.00,VWS V14.00,2013-10-26 17:28:00,
2013-10-26 13:33:00,51.0,26.9,29.97,South,173,10.0,13.0,39,0.00,,FEW055,0.00,VWS V14.00,2013-10-26 17:33:00,
2013-10-26 13:38:00,51.3,27.8,29.97,SSW,202,5.0,10.0,40,0.00,,FEW055,0.00,VWS V14.00,2013-10-26 17:38:00,
2013-10-26 13:43:00,51.6,28.1,29.97,West,264,1.0,10.0,40,0.00,,FEW055,0.00,VWS V14.00,2013-10-26 17:43:00,
2013-10-26 13:48:00,51.7,26.9,29.95,SSW,198,3.0,10.0,38,0.00,,FEW055,0.00,VWS V14.00,2013-10-26 17:48:00,
2013-10-26 13:53:00,51.1,27.0,29.95,WNW,292,4.0,4.0,39,0.00,,FEW055,0.00,VWS V14.00,2013-10-26 17:53:00,
2013-10-26 13:58:00,51.3,27.2,29.95,WSW,238,2.0,5.0,39,0.00,,FEW055,0.00,VWS V14.00,2013-10-26 17:58:00,
2013-10-26 14:03:00,51.1,27.0,29.95,West,266,6.0,13.0,39,0.00,,FEW055,0.00,VWS V14.00,2013-10-26 18:03:00,
2013-10-26 14:08:00,51.3,25.9,29.95,West,273,5.0,7.0,37,0.00,,FEW055,0.00,VWS V14.00,2013-10-26 18:08:00,
2013-10-26 14:13:00,51.3,27.8,29.95,SSE,153,4.0,6.0,40,0.00,,FEW055,0.00,VWS V14.00,2013-10-26 18:13:00,
2013-10-26 14:18:00,51.9,27.7,29.94,SSE,163,3.0,5.0,39,0.00,,FEW055,0.00,VWS V14.00,2013-10-26 18:18:00,
2013-10-26 14:23:00,51.6,28.1,29.94,SSE,164,2.0,3.0,40,0.00,,FEW055,0.00,VWS V14.00,2013-10-26 18:23:00,
2013-10-26 14:28:00,51.7,26.9,29.94,SSE,153,3.0,3.0,38,0.00,,FEW055,0.00,VWS V14.00,2013-10-26 18:28:00,
2013-10-26 14:33:00,51.6,26.8,29.93,West,271,5.0,9.0,38,0.00,,CLR,0.00,VWS V14.00,2013-10-26 18:33:00,
2013-10-26 14:38:00,51.9,27.1,29.93,SE,130,1.0,7.0,38,0.00,,CLR,0.00,VWS V14.00,2013-10-26 18:38:00,
2013-10-26 14:43:00,51.6,26.8,29.93,SW,232,3.0,5.0,38,0.00,,CLR,0.00,VWS V14.00,2013-10-26 18:43:00,
2013-10-26 14:48:00,52.0,27.8,29.92,WSW,250,3.0,6.0,39,0.00,,CLR,0.00,VWS V14.00,2013-10-26 18:48:00,
2013-10-26 14:53:00,51.7,26.9,29.92,SW,217,3.0,12.0,38,0.00,,CLR,0.00,VWS V14.00,2013-10-26 18:53:00,
2013-10-26 14:58:00,51.7,26.9,29.92,SSW,192,2.0,11.0,38,0.00,,CLR,0.00,VWS V14.00,2013-10-26 18:58:00,
2013-10-26 15:03:00,51.4,26.7,29.92,SSW,208,6.0,6.0,38,0.00,,CLR,0.00,VWS V14.00,2013-10-26 19:03:00,
2013-10-26 15:08:00,51.6,26.2,29.92,WSW,240,3.0,4.0,37,0.00,,CLR,0.00,VWS V14.00,2013-10-26 19:08:00,
2013-10-26 15:13:00,51.7,25.6,29.92,SW,216,13.0,15.0,36,0.00,,CLR,0.00,VWS V14.00,2013-10-26 19:13:00,
2013-10-26 15:18:00,52.0,26.5,29.91,ESE,110,2.0,5.0,37,0.00,,CLR,0.00,VWS V14.00,2013-10-26 19:18:00,
2013-10-26 15:23:00,52.0,27.2,29.91,SW,215,2.0,9.0,38,0.00,,CLR,0.00,VWS V14.00,2013-10-26 19:23:00,
2013-10-26 15:28:00,52.3,26.8,29.91,SE,143,6.0,6.0,37,0.00,,CLR,0.00,VWS V14.00,2013-10-26 19:28:00,
2013-10-26 15:33:00,52.2,27.4,29.90,SW,236,4.0,5.0,38,0.00,,CLR,0.00,VWS V14.00,2013-10-26 19:33:00,
2013-10-26 15:38:00,52.0,26.5,29.90,SSW,205,4.0,4.0,37,0.00,,CLR,0.00,VWS V14.00,2013-10-26 19:38:00,
2013-10-26 15:43:00,52.0,27.2,29.90,SSW,212,8.0,12.0,38,0.00,,CLR,0.00,VWS V14.00,2013-10-26 19:43:00,
2013-10-26 15:48:00,51.7,25.0,29.90,WNW,286,6.0,6.0,35,0.00,,CLR,0.00,VWS V14.00,2013-10-26 19:48:00,
2013-10-26 15:53:00,51.7,25.0,29.90,West,266,6.0,7.0,35,0.00,,CLR,0.00,VWS V14.00,2013-10-26 19:53:00,
2013-10-26 15:58:00,52.0,27.2,29.90,WSW,242,2.0,3.0,38,0.00,,CLR,0.00,VWS V14.00,2013-10-26 19:58:00,
2013-10-26 16:03:00,52.5,27.6,29.89,SW,236,4.0,6.0,38,0.00,,CLR,0.00,VWS V14.00,2013-10-26 20:03:00,
2013-10-26 16:08:00,51.7,27.6,29.89,West,274,1.0,6.0,39,0.00,,CLR,0.00,VWS V14.00,2013-10-26 20:08:00,
2013-10-26 16:13:00,51.6,26.8,29.89,WSW,247,0.0,4.0,38,0.00,,CLR,0.00,VWS V14.00,2013-10-26 20:13:00,
2013-10-26 16:18:00,51.4,27.3,29.88,SW,223,1.0,4.0,39,0.00,,CLR,0.00,VWS V14.00,2013-10-26 20:18:00,
2013-10-26 16:23:00,51.4,27.3,29.88,WSW,240,6.0,7.0,39,0.00,,CLR,0.00,VWS V14.00,2013-10-26 20:23:00,
2013-10-26 16:28:00,51.3,26.6,29.88,SSW,209,2.0,4.0,38,0.00,,CLR,0.00,VWS V14.00,2013-10-26 20:28:00,
2013-10-26 16:33:00,51.1,27.0,29.88,West,281,0.0,4.0,39,0.00,,CLR,0.00,VWS V14.00,2013-10-26 20:33:00,
2013-10-26 16:38:00,51.3,27.8,29.88,WSW,256,3.0,5.0,40,0.00,,CLR,0.00,VWS V14.00,2013-10-26 20:38:00,
2013-10-26 16:43:00,51.0,26.3,29.88,North,355,2.0,17.0,38,0.00,,CLR,0.00,VWS V14.00,2013-10-26 20:43:00,
2013-10-26 16:48:00,50.8,27.4,29.88,SSE,163,1.0,5.0,40,0.00,,CLR,0.00,VWS V14.00,2013-10-26 20:48:00,
2013-10-26 16:53:00,50.8,28.5,29.88,SE,128,2.0,9.0,42,0.00,,CLR,0.00,VWS V14.00,2013-10-26 20:53:00,
2013-10-26 16:58:00,50.7,27.3,29.88,WSW,248,7.0,9.0,40,0.00,,CLR,0.00,VWS V14.00,2013-10-26 20:58:00,
2013-10-26 17:03:00,50.7,27.3,29.87,SSW,211,1.0,4.0,40,0.00,,CLR,0.00,VWS V14.00,2013-10-26 21:03:00,
2013-10-26 17:08:00,50.4,27.6,29.87,WSW,242,1.0,10.0,41,0.00,,CLR,0.00,VWS V14.00,2013-10-26 21:08:00,
2013-10-26 17:13:00,50.2,28.0,29.87,SSW,205,3.0,4.0,42,0.00,,CLR,0.00,VWS V14.00,2013-10-26 21:13:00,
2013-10-26 17:18:00,49.9,27.1,29.87,WSW,246,5.0,5.0,41,0.00,,CLR,0.00,VWS V14.00,2013-10-26 21:18:00,
2013-10-26 17:23:00,49.8,27.6,29.87,West,281,4.0,4.0,42,0.00,,CLR,0.00,VWS V14.00,2013-10-26 21:23:00,
2013-10-26 17:28:00,49.6,27.5,29.87,SE,145,6.0,6.0,42,0.00,,CLR,0.00,VWS V14.00,2013-10-26 21:28:00,
2013-10-26 17:33:00,49.5,26.8,29.86,SE,145,1.0,3.0,41,0.00,,CLR,0.00,VWS V14.00,2013-10-26 21:33:00,
2013-10-26 17:38:00,49.4,27.3,29.86,WSW,246,6.0,6.0,42,0.00,,CLR,0.00,VWS V14.00,2013-10-26 21:38:00,
2013-10-26 17:43:00,49.2,27.1,29.86,WSW,256,2.0,4.0,42,0.00,,CLR,0.00,VWS V14.00,2013-10-26 21:43:00,
2013-10-26 17:48:00,49.1,27.0,29.85,East,92,2.0,2.0,42,0.00,,CLR,0.00,VWS V14.00,2013-10-26 21:48:00,
2013-10-26 17:53:00,48.9,27.4,29.85,SSW,209,0.0,2.0,43,0.00,,CLR,0.00,VWS V14.00,2013-10-26 21:53:00,
2013-10-26 17:58:00,48.6,27.1,29.85,ESE,106,2.0,12.0,43,0.00,,CLR,0.00,VWS V14.00,2013-10-26 21:58:00,
2013-10-26 18:03:00,48.3,27.4,29.85,East,90,1.0,5.0,44,0.00,,CLR,0.00,VWS V14.00,2013-10-26 22:03:00,
2013-10-26 18:08:00,48.2,27.3,29.85,SE,126,1.0,2.0,44,0.00,,CLR,0.00,VWS V14.00,2013-10-26 22:08:00,
2013-10-26 18:13:00,48.0,27.1,29.85,WSW,255,1.0,3.0,44,0.00,,CLR,0.00,VWS V14.00,2013-10-26 22:13:00,
2013-10-26 18:18:00,48.0,27.1,29.85,SSW,198,2.0,2.0,44,0.00,,CLR,0.00,VWS V14.00,2013-10-26 22:18:00,
2013-10-26 18:23:00,47.7,27.4,29.85,NW,323,0.0,0.0,45,0.00,,CLR,0.00,VWS V14.00,2013-10-26 22:23:00,
2013-10-26 18:28:00,47.6,27.3,29.85,SE,139,1.0,3.0,45,0.00,,CLR,0.00,VWS V14.00,2013-10-26 22:28:00,
2013-10-26 18:33:00,47.4,27.7,29.85,SW,234,1.0,3.0,46,0.00,,CLR,0.00,VWS V14.00,2013-10-26 22:33:00,
2013-10-26 18:38:00,47.4,27.7,29.85,South,186,1.0,2.0,46,0.00,,CLR,0.00,VWS V14.00,2013-10-26 22:38:00,
2013-10-26 18:43:00,47.3,28.1,29.85,WSW,251,2.0,2.0,47,0.00,,CLR,0.00,VWS V14.00,2013-10-26 22:43:00,
2013-10-26 18:48:00,47.1,27.9,29.86,WSW,247,3.0,3.0,47,0.00,,CLR,0.00,VWS V14.00,2013-10-26 22:48:00,
2013-10-26 18:53:00,47.3,28.1,29.86,WSW,255,2.0,2.0,47,0.00,,CLR,0.00,VWS V14.00,2013-10-26 22:53:00,
2013-10-26 18:58:00,47.1,28.4,29.86,SSW,212,1.0,2.0,48,0.00,,CLR,0.00,VWS V14.00,2013-10-26 22:58:00,
2013-10-26 19:03:00,47.0,28.3,29.86,WNW,295,0.0,4.0,48,0.00,,CLR,0.00,VWS V14.00,2013-10-26 23:03:00,
2013-10-26 19:08:00,46.8,28.7,29.86,WNW,295,3.0,3.0,49,0.00,,CLR,0.00,VWS V14.00,2013-10-26 23:08:00,
2013-10-26 19:13:00,46.7,28.6,29.86,WSW,258,2.0,4.0,49,0.00,,CLR,0.00,VWS V14.00,2013-10-26 23:13:00,
2013-10-26 19:18:00,46.7,28.6,29.86,WSW,258,1.0,2.0,49,0.00,,CLR,0.00,VWS V14.00,2013-10-26 23:18:00,
2013-10-26 19:23:00,46.7,28.6,29.86,WNW,286,0.0,1.0,49,0.00,,CLR,0.00,VWS V14.00,2013-10-26 23:23:00,
2013-10-26 19:28:00,46.7,28.6,29.86,SE,134,0.0,5.0,49,0.00,,CLR,0.00,VWS V14.00,2013-10-26 23:28:00,
2013-10-26 19:33:00,46.7,29.1,29.86,SSW,212,2.0,2.0,50,0.00,,CLR,0.00,VWS V14.00,2013-10-26 23:33:00,
2013-10-26 19:38:00,46.7,29.1,29.86,WNW,282,1.0,4.0,50,0.00,,CLR,0.00,VWS V14.00,2013-10-26 23:38:00,
2013-10-26 19:43:00,46.7,29.5,29.86,WNW,282,0.0,0.0,51,0.00,,CLR,0.00,VWS V14.00,2013-10-26 23:43:00,
2013-10-26 19:48:00,46.7,29.5,29.86,WNW,282,0.0,1.0,51,0.00,,CLR,0.00,VWS V14.00,2013-10-26 23:48:00,
2013-10-26 19:53:00,46.7,29.5,29.86,ESE,122,0.0,1.0,51,0.00,,CLR,0.00,VWS V14.00,2013-10-26 23:53:00,
2013-10-26 19:58:00,46.5,29.4,29.86,ESE,122,2.0,2.0,51,0.00,,CLR,0.00,VWS V14.00,2013-10-26 23:58:00,
2013-10-26 20:03:00,46.5,29.4,29.85,SW,235,0.0,2.0,51,0.00,,CLR,0.00,VWS V14.00,2013-10-27 00:03:00,
2013-10-26 20:08:00,46.5,29.8,29.85,WNW,284,3.0,3.0,52,0.00,,CLR,0.00,VWS V14.00,2013-10-27 00:08:00,
2013-10-26 20:13:00,46.5,29.8,29.85,WNW,284,0.0,0.0,52,0.00,,CLR,0.00,VWS V14.00,2013-10-27 00:13:00,
2013-10-26 20:18:00,46.7,30.5,29.85,WNW,284,0.0,1.0,53,0.00,,SCT080,0.00,VWS V14.00,2013-10-27 00:18:00,
2013-10-26 20:23:00,46.7,30.0,29.85,South,174,0.0,1.0,52,0.00,,SCT080,0.00,VWS V14.00,2013-10-27 00:23:00,
2013-10-26 20:28:00,46.7,30.0,29.85,SSW,192,0.0,2.0,52,0.00,,SCT080,0.00,VWS V14.00,2013-10-27 00:28:00,
2013-10-26 20:33:00,46.8,30.6,29.85,West,272,0.0,1.0,53,0.00,,SCT080,0.00,VWS V14.00,2013-10-27 00:33:00,
2013-10-26 20:38:00,46.8,30.6,29.85,West,272,0.0,1.0,53,0.00,,SCT080,0.00,VWS V14.00,2013-10-27 00:38:00,
2013-10-26 20:43:00,46.8,30.6,29.85,West,269,0.0,2.0,53,0.00,,SCT080,0.00,VWS V14.00,2013-10-27 00:43:00,
2013-10-26 20:48:00,46.8,30.1,29.85,WSW,258,0.0,3.0,52,0.00,,SCT080,0.00,VWS V14.00,2013-10-27 00:48:00,
2013-10-26 20:53:00,47.0,30.3,29.85,SSE,149,0.0,2.0,52,0.00,,SCT080,0.00,VWS V14.00,2013-10-27 00:53:00,
2013-10-26 20:58:00,47.0,30.3,29.85,South,187,0.0,1.0,52,0.00,,SCT080,0.00,VWS V14.00,2013-10-27 00:58:00,
2013-10-26 21:03:00,47.1,30.4,29.85,SSE,157,0.0,1.0,52,0.00,,SCT080,0.00,VWS V14.00,2013-10-27 01:03:00,
2013-10-26 21:08:00,47.1,30.4,29.85,ESE,117,0.0,1.0,52,0.00,,SCT080,0.00,VWS V14.00,2013-10-27 01:08:00,
2013-10-26 21:13:00,47.1,29.9,29.85,ESE,105,1.0,2.0,51,0.00,,SCT080,0.00,VWS V14.00,2013-10-27 01:13:00,
2013-10-26 21:18:00,47.1,30.4,29.84,South,171,0.0,2.0,52,0.00,,SCT080,0.00,VWS V14.00,2013-10-27 01:18:00,
2013-10-26 21:23:00,47.1,30.4,29.84,SE,127,0.0,0.0,52,0.00,,SCT080,0.00,VWS V14.00,2013-10-27 01:23:00,
2013-10-26 21:28:00,47.1,29.9,29.84,SSW,194,0.0,3.0,51,0.00,,SCT080,0.00,VWS V14.00,2013-10-27 01:28:00,
2013-10-26 21:33:00,47.1,30.4,29.84,SE,127,1.0,4.0,52,0.00,,BKN080,0.00,VWS V14.00,2013-10-27 01:33:00,
2013-10-26 21:38:00,47.1,30.4,29.84,SE,132,0.0,4.0,52,0.00,,BKN080,0.00,VWS V14.00,2013-10-27 01:38:00,
2013-10-26 21:43:00,47.1,30.4,29.84,South,170,0.0,3.0,52,0.00,,BKN080,0.00,VWS V14.00,2013-10-27 01:43:00,
2013-10-26 21:48:00,47.1,30.4,29.84,East,93,1.0,1.0,52,0.00,,BKN080,0.00,VWS V14.00,2013-10-27 01:48:00,
2013-10-26 21:53:00,47.1,30.4,29.84,ENE,72,0.0,0.0,52,0.00,,BKN080,0.00,VWS V14.00,2013-10-27 01:53:00,
2013-10-26 21:58:00,47.1,30.4,29.84,SSE,153,3.0,3.0,52,0.00,,BKN080,0.00,VWS V14.00,2013-10-27 01:58:00,
2013-10-26 22:03:00,47.1,30.4,29.84,WSW,248,1.0,1.0,52,0.00,,BKN080,0.00,VWS V14.00,2013-10-27 02:03:00,
2013-10-26 22:08:00,47.1,30.9,29.84,ESE,106,0.0,0.0,53,0.00,,BKN080,0.00,VWS V14.00,2013-10-27 02:08:00,
2013-10-26 22:13:00,47.1,30.9,29.84,South,172,0.0,0.0,53,0.00,,BKN080,0.00,VWS V14.00,2013-10-27 02:13:00,
2013-10-26 22:18:00,47.1,30.9,29.83,SE,130,0.0,4.0,53,0.00,,BKN080,0.00,VWS V14.00,2013-10-27 02:18:00,
2013-10-26 22:23:00,47.0,30.8,29.83,WSW,257,0.0,0.0,53,0.00,,BKN080,0.00,VWS V14.00,2013-10-27 02:23:00,
2013-10-26 22:28:00,47.0,30.3,29.83,ESE,107,0.0,2.0,52,0.00,,BKN080,0.00,VWS V14.00,2013-10-27 02:28:00,
2013-10-26 22:33:00,47.0,30.3,29.83,WSW,237,2.0,2.0,52,0.00,,OVC075,0.00,VWS V14.00,2013-10-27 02:33:00,
2013-10-26 22:38:00,47.0,30.8,29.83,WSW,237,0.0,0.0,53,0.00,,OVC075,0.00,VWS V14.00,2013-10-27 02:38:00,
2013-10-26 22:43:00,47.0,30.8,29.83,SW,236,0.0,1.0,53,0.00,,OVC075,0.00,VWS V14.00,2013-10-27 02:43:00,
2013-10-26 22:48:00,47.0,30.8,29.83,SW,217,1.0,2.0,53,0.00,,OVC075,0.00,VWS V14.00,2013-10-27 02:48:00,
2013-10-26 22:53:00,47.0,30.8,29.83,ESE,121,0.0,2.0,53,0.00,,OVC075,0.00,VWS V14.00,2013-10-27 02:53:00,
2013-10-26 22:58:00,47.0,30.8,29.83,ESE,114,0.0,0.0,53,0.00,,OVC075,0.00,VWS V14.00,2013-10-27 02:58:00,
2013-10-26 23:03:00,47.0,30.8,29.82,ESE,114,0.0,1.0,53,0.00,,OVC075,0.00,VWS V14.00,2013-10-27 03:03:00,
2013-10-26 23:08:00,47.0,30.8,29.82,ESE,106,1.0,2.0,53,0.00,,OVC075,0.00,VWS V14.00,2013-10-27 03:08:00,
2013-10-26 23:13:00,47.0,30.8,29.82,West,259,0.0,1.0,53,0.00,,OVC075,0.00,VWS V14.00,2013-10-27 03:13:00,
2013-10-26 23:18:00,47.0,30.8,29.82,West,259,2.0,2.0,53,0.00,,OVC075,0.00,VWS V14.00,2013-10-27 03:18:00,
2013-10-26 23:23:00,47.0,30.8,29.82,West,259,0.0,1.0,53,0.00,,OVC075,0.00,VWS V14.00,2013-10-27 03:23:00,
2013-10-26 23:28:00,47.0,31.2,29.82,West,259,0.0,2.0,54,0.00,,OVC075,0.00,VWS V14.00,2013-10-27 03:28:00,
2013-10-26 23:33:00,47.0,30.8,29.81,ESE,109,1.0,1.0,53,0.00,,OVC075,0.00,VWS V14.00,2013-10-27 03:33:00,
2013-10-26 23:38:00,47.0,30.8,29.81,South,174,0.0,1.0,53,0.00,,OVC075,0.00,VWS V14.00,2013-10-27 03:38:00,
2013-10-26 23:43:00,47.1,30.4,29.81,SE,140,0.0,1.0,52,0.00,,OVC075,0.00,VWS V14.00,2013-10-27 03:43:00,
2013-10-26 23:48:00,47.1,30.4,29.81,SE,126,1.0,6.0,52,0.00,,OVC075,0.00,VWS V14.00,2013-10-27 03:48:00,
2013-10-26 23:53:00,47.1,30.4,29.81,WNW,286,0.0,3.0,52,0.00,,OVC075,0.00,VWS V14.00,2013-10-27 03:53:00,
2013-10-26 23:58:00,47.1,30.9,29.81,WNW,286,0.0,0.0,53,0.00,,OVC075,0.00,VWS V14.00,2013-10-27 03:58:00,